Wind_Speed
4 5 6 7 7 9 10 12 15 16 18 20 21 22 22 22 23 22 21 20 21 22 23 24 25 25 26 27 27 28 29 30 31 32 34 34 34 34 34 35 35 36 36 36
5 6 6 7 8 8 10 12 14 17 18 20 21 23 23 23 22 21 20 20 19 20 21 22 23 24 25 25 25 26 26 27 29 30 30 30 31 32 32 33 33 33 33 34
6 6 7 7 8 10 12 13 15 17 18 19 20 21 21 22 21 21 20 19 19 18 19 21 22 23 23 24 25 25 26 27 27 27 27 28 29 30 30 30 30 30 31 31
6 7 8 9 10 12 13 14 15 16 18 20 20 21 20 20 20 19 18 18 19 19 19 20 20 21 22 23 23 24 24 24 25 25 26 27 27 27 27 27 28 28 29 29
8 9 9 11 12 14 15 15 17 18 19 20 20 20 20 19 18 17 17 17 18 18 18 19 19 21 21 22 22 22 22 23 23 24 24 24 24 24 24 24 25 26 26 25
9 10 11 12 14 16 17 17 18 19 19 19 19 19 18 17 16 15 15 16 16 16 17 17 17 18 19 20 20 21 21 22 22 22 21 21 21 22 22 23 23 23 23 23
10 11 13 14 16 18 19 19 19 19 18 18 18 17 16 16 15 15 15 15 14 15 15 15 15 16 16 16 17 18 18 18 19 19 19 20 20 20 20 21 21 21 21 21
11 12 14 16 17 18 19 19 19 19 19 18 17 16 15 15 14 14 13 13 13 13 13 14 14 14 14 15 15 15 15 16 17 17 18 18 18 18 19 19 19 19 19 19
11 13 14 16 17 18 18 19 19 19 19 18 17 16 15 14 14 13 12 12 12 12 12 12 12 13 13 13 13 13 13 14 14 15 15 15 16 16 16 16 16 16 16 17
11 13 14 16 17 18 18 19 20 19 18 17 16 15 14 14 12 11 10 10 10 10 9 10 10 10 11 11 12 12 12 12 13 13 13 13 13 13 13 13 13 13 14 14
11 13 14 16 17 18 18 19 20 20 19 17 16 14 14 13 12 11 10 10 9 8 8 8 8 8 9 10 10 10 10 11 11 12 12 12 12 12 11 11 11 11 12 12
11 13 15 17 18 18 19 20 20 19 19 17 16 15 13 13 11 10 10 9 8 7 7 7 7 7 7 8 8 8 9 9 10 10 10 10 10 10 10 10 10 10 10 10
12 14 16 17 18 19 19 20 20 19 19 18 16 15 14 13 11 11 10 10 9 8 7 6 6 5 6 6 6 7 7 8 9 9 9 9 8 8 9 8 8 9 9 9
12 14 15 17 18 19 19 20 19 19 18 17 16 15 14 13 12 12 11 11 10 9 8 7 6 6 6 5 6 6 7 7 8 7 7 7 7 7 7 7 7 7 8 8
11 13 15 16 17 18 19 19 19 19 18 17 16 15 14 13 13 12 11 11 11 10 8 7 6 6 5 5 5 6 6 6 7 7 7 6 6 6 6 7 7 7 7 7
10 12 14 15 17 18 19 19 18 19 18 17 16 15 15 14 13 13 12 12 12 11 9 8 7 6 6 6 6 6 6 6 6 6 6 6 6 6 6 7 7 7 7 7
9 11 13 14 16 17 18 18 18 18 19 18 17 16 15 15 14 14 13 13 13 12 11 10 8 7 7 6 6 6 6 6 6 6 6 6 6 7 7 7 7 7 7 7
8 10 12 13 14 16 17 18 18 18 19 19 18 17 16 16 15 15 15 14 14 13 13 12 11 10 9 8 7 7 7 7 7 7 7 7 7 7 7 7 7 7 8 8
7 9 10 12 13 15 16 17 18 18 19 19 19 18 17 17 17 16 16 16 15 14 14 13 13 12 11 10 9 8 8 8 8 7 8 8 8 8 8 8 8 8 8 9
6 8 9 11 12 14 15 16 17 18 18 18 18 18 18 18 17 17 17 16 16 16 15 15 14 13 13 12 11 10 9 8 8 8 8 9 9 9 9 9 9 9 9 9
6 7 8 9 11 12 13 15 16 17 18 18 18 18 18 18 17 17 17 17 17 17 17 16 15 14 14 13 13 12 11 10 10 9 10 10 10 10 10 10 9 9 9 9
5 6 7 8 10 11 12 13 14 16 17 17 18 18 18 17 17 17 17 18 18 17 18 17 17 16 15 15 14 14 13 12 11 11 11 11 11 11 11 10 10 10 10 10
4 5 6 7 8 9 11 12 13 14 15 16 16 17 17 17 17 17 17 17 17 17 18 18 17 17 16 15 15 14 13 12 12 12 12 12 11 11 11 11 11 10 10 10
3 4 5 6 7 8 9 10 11 13 14 14 15 16 16 16 16 17 17 16 16 17 17 17 17 17 16 16 15 15 14 13 12 12 12 12 12 11 11 11 11 11 10 10
4 4 4 5 6 7 7 9 10 11 12 13 13 14 15 15 15 15 15 16 16 16 17 17 16 16 16 16 15 15 14 13 13 13 12 12 12 11 11 11 10 10 10 10
5 4 4 5 5 6 6 7 8 9 10 11 11 12 13 14 14 14 14 15 15 15 16 16 16 15 15 15 15 15 15 14 14 13 13 12 12 11 11 10 10 10 10 9
7 6 5 5 5 5 5 6 7 8 8 9 10 10 11 12 12 13 13 13 14 14 14 15 15 15 15 15 15 15 15 14 14 14 13 13 12 12 11 11 10 10 9 9
Wind_Direction
310 288 278 287 286 280 282 289 294 295 296 295 299 301 300 299 299 297 293 287 281 276 273 272 271 272 272 272 272 272 271 271 271 272 274 275 277 279 280 281 281 282 283 284
325 307 292 294 306 306 303 303 302 301 301 300 301 301 301 301 298 294 293 291 286 279 274 276 275 275 276 275 276 276 276 274 274 275 276 277 278 280 281 281 281 282 283 283
340 325 316 313 316 321 318 315 309 306 307 307 305 305 304 302 296 293 290 287 287 282 278 280 280 277 276 277 278 278 278 277 277 277 277 278 281 281 280 281 282 282 283 284
350 348 345 337 334 329 327 322 316 314 312 312 310 308 307 307 303 295 290 289 288 286 284 282 282 280 278 279 280 280 280 279 278 278 278 280 281 281 280 281 282 283 285 286
353 351 349 346 342 336 332 331 324 321 317 315 314 311 309 307 303 298 293 290 289 287 285 283 282 280 278 278 279 280 281 281 282 281 281 282 283 283 283 283 284 285 286 286
356 355 352 347 341 338 335 333 331 327 324 320 317 314 311 308 303 298 294 292 291 288 284 283 283 282 281 280 280 281 282 283 283 284 283 284 285 286 285 286 286 287 287 287
356 353 351 348 345 342 341 337 334 331 329 326 323 318 314 309 303 299 296 294 292 290 285 284 284 284 283 283 283 284 286 286 287 287 286 286 286 287 287 288 288 288 289 290
353 351 350 347 345 344 341 338 337 336 334 330 327 323 319 314 309 305 298 295 294 291 287 284 282 284 286 287 289 287 288 290 291 290 288 288 288 291 292 292 291 290 291 292
353 350 348 347 346 345 345 345 344 342 339 336 332 329 325 319 315 310 303 299 295 292 290 286 283 284 284 286 289 291 290 292 292 291 290 291 293 295 296 294 293 293 294 296
352 351 349 348 348 349 349 349 348 347 346 344 342 338 336 332 326 320 315 308 303 298 294 291 288 288 288 288 290 293 294 294 295 296 297 298 299 299 299 299 298 298 300 301
351 351 350 351 352 353 353 351 350 350 350 350 348 346 342 339 336 332 329 324 318 309 303 301 298 295 293 294 294 296 297 299 299 299 301 303 303 303 305 305 305 306 306 307
353 354 354 354 355 356 356 355 354 354 355 354 353 351 349 347 344 343 341 337 332 325 316 310 305 302 302 303 303 304 306 306 305 306 308 308 307 308 310 312 313 315 317 318
355 357 357 357 358 359 359 359 358 358 358 358 357 356 356 355 354 353 353 353 350 344 338 333 327 323 320 318 317 317 319 320 319 318 319 319 318 318 319 322 325 327 330 330
355 357 359 360 0 1 1 2 2 3 4 4 4 4 4 4 3 3 4 3 2 359 355 350 344 340 337 332 328 328 329 329 329 331 334 335 335 334 334 334 336 338 339 340
355 359 1 2 3 4 4 6 7 8 10 10 11 12 14 14 14 14 14 13 12 10 8 3 357 354 351 345 339 339 340 340 342 345 348 349 349 348 349 349 348 348 349 351
355 359 1 3 5 6 7 9 11 12 14 15 16 18 21 22 22 22 22 21 19 17 14 10 5 2 359 356 353 354 356 353 351 352 355 358 358 358 359 0 360 360 1 0
357 360 2 4 7 8 10 12 13 15 17 19 20 22 25 25 24 25 25 25 25 26 24 22 19 15 14 13 9 8 6 1 358 360 3 5 9 12 12 10 10 11 9 7
357 1 3 6 9 11 13 15 17 19 20 23 25 27 29 28 28 30 31 31 31 30 31 32 32 31 30 26 20 17 18 16 12 14 17 20 24 25 22 20 21 20 17 14
358 3 5 8 11 13 15 18 20 21 23 26 29 31 33 34 34 34 34 35 35 35 36 37 38 39 40 38 34 30 29 28 26 26 28 30 31 30 28 27 27 25 24 23
358 3 5 8 11 14 16 19 22 24 26 28 30 33 35 36 36 37 39 39 39 39 40 41 41 41 41 40 38 37 37 36 33 33 35 36 36 35 34 33 31 30 30 30
355 0 3 6 10 14 17 20 23 26 28 30 31 33 35 37 38 39 39 39 39 41 42 42 41 42 43 42 42 44 42 40 39 40 41 42 42 40 39 37 38 38 37 36
346 355 360 5 10 14 18 21 24 26 28 30 32 34 36 38 39 39 40 41 41 42 42 42 42 43 44 44 45 46 45 44 45 45 45 46 46 44 41 41 42 41 41 41
328 346 355 2 8 12 16 19 22 26 28 30 32 35 38 39 39 39 40 42 43 43 42 41 41 42 43 43 44 45 44 44 45 46 47 47 46 44 43 43 43 44 45 45
304 331 346 356 3 8 13 16 20 23 27 29 31 34 37 38 38 39 40 41 41 41 41 40 40 40 41 42 42 43 44 43 44 45 45 45 43 42 41 41 43 44 44 45
278 309 332 347 355 2 6 11 15 19 22 25 28 31 34 36 37 37 38 40 40 40 40 39 38 38 39 40 41 44 45 44 44 45 44 42 40 39 38 38 39 40 40 42
264 286 307 326 340 349 356 2 8 13 17 20 23 26 29 32 34 35 36 37 39 39 38 37 37 36 37 39 40 42 42 42 42 42 40 37 36 36 35 35 35 36 37 38
256 270 287 305 317 327 337 348 357 3 8 13 17 20 23 26 28 30 32 34 35 35 35 35 35 36 37 37 37 37 38 38 39 38 36 34 33 32 33 34 34 33 33 35
Height
5776 5775 5774 5774 5773 5773 5772 5771 5770 5769 5767 5766 5764 5762 5759 5757 5756 5755 5753 5752 5751 5750 5749 5749 5748 5748 5747 5747 5746 5746 5745 5744 5744 5743 5743 5742 5740 5739 5738 5736 5734 5732 5731 5729
5775 5774 5773 5772 5771 5770 5769 5768 5766 5764 5763 5760 5758 5756 5754 5751 5750 5748 5747 5746 5745 5744 5743 5742 5741 5741 5740 5739 5739 5738 5737 5736 5735 5735 5734 5733 5732 5730 5728 5727 5725 5723 5722 5720
5774 5773 5772 5771 5769 5768 5766 5765 5763 5761 5759 5756 5753 5751 5748 5746 5744 5742 5741 5740 5739 5738 5736 5735 5734 5734 5733 5732 5731 5730 5730 5729 5728 5727 5726 5725 5723 5722 5720 5718 5717 5715 5713 5712
5773 5773 5770 5771 5767 5766 5764 5761 5759 5756 5753 5750 5748 5745 5742 5740 5738 5736 5735 5733 5732 5731 5730 5729 5728 5727 5726 5725 5724 5723 5722 5722 5720 5719 5718 5717 5716 5714 5712 5711 5709 5707 5706 5704
5772 5770 5769 5767 5764 5762 5760 5758 5755 5752 5748 5745 5742 5739 5737 5734 5732 5731 5729 5728 5727 5725 5724 5723 5722 5721 5720 5719 5718 5717 5716 5715 5713 5712 5711 5710 5708 5707 5705 5704 5702 5700 5698 5696
5771 5769 5767 5766 5763 5759 5758 5754 5751 5747 5744 5740 5737 5735 5733 5730 5728 5726 5724 5723 5721 5720 5719 5718 5716 5715 5714 5713 5712 5711 5710 5708 5707 5706 5705 5703 5702 5701 5699 5697 5695 5693 5691 5689
5770 5768 5765 5763 5760 5757 5755 5752 5747 5743 5740 5736 5733 5731 5728 5725 5723 5721 5720 5718 5716 5715 5714 5713 5712 5710 5709 5708 5707 5706 5704 5703 5702 5700 5699 5698 5696 5695 5693 5691 5689 5687 5685 5683
5768 5766 5766 5761 5758 5755 5752 5747 5743 5740 5736 5732 5729 5726 5723 5721 5719 5717 5715 5714 5712 5711 5709 5708 5707 5706 5705 5703 5702 5701 5700 5698 5697 5695 5694 5692 5691 5689 5687 5685 5683 5681 5680 5678
5768 5767 5763 5759 5756 5753 5749 5745 5741 5737 5733 5729 5726 5723 5720 5717 5715 5713 5711 5709 5708 5706 5705 5704 5703 5702 5701 5700 5698 5697 5696 5694 5693 5691 5689 5688 5686 5684 5682 5680 5679 5677 5675 5674
5766 5763 5761 5758 5754 5751 5747 5743 5739 5735 5731 5727 5723 5720 5717 5714 5712 5709 5707 5706 5704 5703 5701 5700 5699 5698 5697 5696 5695 5693 5692 5691 5689 5687 5686 5684 5682 5680 5678 5677 5675 5673 5671 5670
5765 5762 5759 5756 5753 5749 5745 5741 5737 5733 5729 5725 5721 5718 5715 5712 5709 5707 5705 5703 5701 5699 5698 5697 5696 5695 5693 5692 5691 5690 5688 5687 5686 5684 5682 5681 5679 5677 5675 5674 5672 5670 5669 5667
5764 5762 5759 5755 5751 5748 5744 5740 5736 5731 5727 5723 5720 5716 5713 5711 5708 5705 5703 5701 5699 5697 5695 5694 5693 5692 5690 5689 5688 5687 5685 5684 5683 5681 5680 5678 5676 5675 5673 5672 5670 5668 5666 5665
5763 5760 5757 5754 5750 5747 5743 5739 5735 5730 5726 5722 5719 5715 5712 5709 5707 5704 5702 5699 5697 5695 5693 5692 5691 5690 5688 5687 5686 5685 5684 5682 5681 5679 5678 5676 5674 5673 5671 5670 5668 5667 5665 5663
5761 5759 5756 5753 5750 5746 5742 5738 5734 5730 5726 5722 5719 5715 5712 5709 5706 5703 5701 5698 5696 5694 5692 5691 5689 5688 5687 5686 5685 5684 5683 5681 5680 5678 5676 5675 5673 5672 5670 5669 5667 5666 5664 5662
5761 5759 5756 5753 5750 5746 5742 5739 5735 5731 5727 5723 5719 5716 5712 5709 5706 5704 5701 5698 5696 5694 5692 5690 5689 5688 5686 5685 5684 5683 5682 5681 5679 5677 5676 5674 5673 5671 5670 5669 5667 5665 5663 5662
5760 5758 5755 5753 5750 5746 5743 5739 5735 5731 5727 5724 5720 5716 5713 5710 5707 5705 5702 5699 5697 5694 5692 5690 5689 5687 5686 5685 5683 5682 5681 5680 5679 5678 5676 5674 5673 5671 5670 5668 5667 5665 5663 5662
5759 5757 5755 5752 5750 5747 5743 5740 5736 5732 5729 5725 5721 5717 5714 5711 5708 5706 5703 5700 5698 5695 5693 5690 5688 5687 5685 5684 5683 5682 5681 5680 5679 5678 5676 5674 5673 5671 5670 5668 5666 5665 5663 5662
5758 5757 5755 5752 5750 5747 5744 5740 5737 5733 5730 5726 5722 5719 5716 5713 5710 5707 5704 5701 5699 5696 5694 5692 5689 5688 5686 5685 5684 5683 5682 5680 5679 5678 5676 5675 5673 5672 5670 5669 5667 5665 5664 5662
5757 5756 5754 5752 5750 5747 5745 5741 5738 5735 5731 5728 5724 5721 5718 5715 5712 5709 5706 5703 5701 5698 5696 5694 5691 5689 5688 5686 5685 5684 5682 5681 5680 5679 5677 5675 5674 5672 5671 5669 5668 5666 5664 5662
5756 5755 5754 5752 5750 5748 5746 5743 5740 5736 5733 5730 5727 5723 5720 5717 5714 5711 5709 5706 5704 5701 5698 5696 5694 5692 5690 5688 5687 5685 5684 5682 5681 5680 5678 5676 5675 5673 5672 5670 5669 5667 5665 5664
5755 5754 5753 5752 5750 5749 5746 5744 5741 5738 5735 5732 5729 5726 5722 5719 5717 5714 5712 5709 5706 5704 5701 5699 5696 5694 5692 5690 5688 5687 5685 5684 5683 5681 5679 5678 5676 5675 5673 5672 5670 5668 5667 5665
5754 5753 5753 5752 5750 5749 5747 5745 5742 5740 5737 5734 5731 5728 5725 5722 5720 5717 5715 5712 5709 5707 5704 5702 5699 5697 5695 5693 5691 5689 5688 5686 5685 5683 5681 5680 5678 5677 5675 5674 5672 5670 5669 5667
5753 5752 5752 5751 5750 5749 5747 5745 5743 5741 5738 5736 5733 5730 5728 5725 5723 5720 5718 5715 5713 5710 5708 5705 5703 5700 5698 5696 5694 5692 5691 5689 5687 5686 5684 5682 5681 5679 5678 5676 5674 5673 5671 5669
5751 5751 5751 5750 5750 5749 5747 5746 5744 5742 5740 5737 5735 5733 5730 5727 5725 5723 5720 5718 5715 5713 5711 5708 5706 5704 5702 5699 5697 5695 5694 5692 5690 5688 5686 5685 5683 5682 5680 5678 5677 5675 5673 5672
5750 5750 5750 5749 5749 5748 5747 5746 5744 5743 5741 5739 5737 5734 5732 5730 5728 5725 5723 5721 5718 5716 5714 5711 5709 5707 5705 5702 5700 5698 5696 5695 5693 5691 5689 5688 5686 5684 5682 5681 5679 5677 5676 5674
5748 5748 5748 5748 5748 5747 5746 5745 5744 5743 5741 5739 5738 5736 5734 5732 5729 5727 5725 5723 5721 5719 5716 5714 5712 5710 5708 5706 5703 5701 5699 5697 5695 5693 5692 5690 5688 5686 5685 5683 5681 5680 5678 5677
5745 5746 5746 5746 5746 5745 5745 5744 5744 5742 5741 5740 5738 5736 5735 5733 5731 5729 5727 5725 5723 5721 5719 5717 5715 5713 5711 5708 5706 5704 5702 5700 5698 5696 5694 5692 5690 5689 5687 5685 5683 5682 5680 5679